KD7TTL Weather Reports


Display with metric or nautical units.
time (UTC)temp
F
wind
direction
speed
MPH
gust
MPH
rain 1hr
in
rain 24hr
in
rain mn
in
humidity
%
barometer
mb
20240612150014 51 111 1.0 6.0 0.00 0.00 0.00 84 1025.2
20240612145506 51 325 1.0 6.0 0.00 0.00 0.00 84 1025.2
20240612145011 51 68 2.0 5.0 0.00 0.00 0.00 84 1025.2
20240612144515 51 85 1.0 6.0 0.00 0.00 0.00 84 1025.2
20240612144008 50 45 1.0 6.0 0.00 0.00 0.00 85 1025.2
20240612143510 50 19 2.0 6.0 0.00 0.00 0.00 86 1025.2
20240612143014 50 68 1.0 4.0 0.00 0.00 0.00 85 1025.1
20240612142506 50 51 0.0 4.0 0.00 0.00 0.00 86 1025.0
20240612142009 50 76 1.0 3.0 0.00 0.00 0.00 86 1025.0
20240612141513 50 80 0.0 3.0 0.00 0.00 0.00 87 1024.9
20240612141008 50 319 1.0 3.0 0.00 0.00 0.00 87 1024.9
20240612140508 50 93 0.0 2.0 0.00 0.00 0.00 87 1024.9
20240612140023 49 34 0.0 3.0 0.00 0.00 0.00 87 1024.8
20240612135506 49 93 0.0 4.0 0.00 0.00 0.00 87 1024.7
20240612135007 49 279 0.0 4.0 0.00 0.00 0.00 88 1024.7
20240612134522 49 319 1.0 4.0 0.00 0.00 0.00 88 1024.7
20240612134008 49 9 0.0 2.0 0.00 0.00 0.00 88 1024.5
20240612133508 49 51 0.0 2.0 0.00 0.00 0.00 88 1024.4
20240612133012 49 51 0.0 2.0 0.00 0.00 0.00 89 1024.4
20240612132508 49 68 0.0 2.0 0.00 0.00 0.00 88 1024.4
20240612132011 48 51 0.0 1.0 0.00 0.00 0.00 89 1024.4
20240612131527 48 26 0.0 1.0 0.00 0.00 0.00 89 1024.3
20240612131006 48 51 0.0 1.0 0.00 0.00 0.00 89 1024.2
20240612130508 48 68 0.0 1.0 0.00 0.00 0.00 89 1024.2
20240612130014 48 68 0.0 1.0 0.00 0.00 0.00 89 1024.2
20240612125505 48 93 0.0 1.0 0.00 0.00 0.00 89 1024.2
20240612125006 48 51 0.0 2.0 0.00 0.00 0.00 89 1024.2
20240612124525 48 68 0.0 2.0 0.00 0.00 0.00 89 1024.2
20240612124008 48 68 0.0 1.0 0.00 0.00 0.00 89 1024.1
20240612123507 48 9 0.0 1.0 0.00 0.00 0.00 88 1024.1
20240612123013 48 68 0.0 1.0 0.00 0.00 0.00 88 1024.1
20240612122508 48 68 0.0 1.0 0.00 0.00 0.00 88 1024.1
20240612122008 48 93 0.0 1.0 0.00 0.00 0.00 88 1024.1
20240612121514 48 120 0.0 1.0 0.00 0.00 0.00 89 1024.1
20240612121007 48 9 0.0 1.0 0.00 0.00 0.00 88 1024.1
20240612120508 48 51 0.0 1.0 0.00 0.00 0.00 88 1024.0
20240612120026 48 51 0.0 1.0 0.00 0.00 0.00 88 1024.0
20240612115506 48 68 0.0 1.0 0.00 0.00 0.00 88 1024.0
20240612115007 48 68 0.0 1.0 0.00 0.00 0.00 87 1024.0
20240612114515 48 51 0.0 1.0 0.00 0.00 0.00 87 1024.0
20240612114009 48 51 0.0 1.0 0.00 0.00 0.00 88 1024.0
20240612113507 48 68 0.0 1.0 0.00 0.00 0.00 88 1024.0
20240612113014 48 51 0.0 1.0 0.00 0.00 0.00 88 1024.0
20240612112506 48 93 0.0 1.0 0.00 0.00 0.00 88 1024.0
20240612112007 48 137 0.0 1.0 0.00 0.00 0.00 87 1024.0
20240612111513 48 51 0.0 1.0 0.00 0.00 0.00 87 1024.1
20240612111006 49 51 0.0 1.0 0.00 0.00 0.00 87 1024.0
20240612110508 49 93 0.0 1.0 0.00 0.00 0.00 86 1024.0
20240612110011 49 51 0.0 1.0 0.00 0.00 0.00 85 1024.0
20240612105506 49 51 0.0 1.0 0.00 0.00 0.00 85 1024.0
20240612105008 49 93 0.0 1.0 0.00 0.00 0.00 85 1024.0
20240612104513 49 51 0.0 1.0 0.00 0.00 0.00 84 1024.0
20240612104009 49 68 0.0 1.0 0.00 0.00 0.00 84 1024.0
20240612103506 49 51 0.0 1.0 0.00 0.00 0.00 84 1024.0
20240612103013 49 93 0.0 1.0 0.00 0.00 0.00 84 1024.0
20240612102506 49 51 0.0 1.0 0.00 0.00 0.00 85 1024.1
20240612102006 49 178 0.0 1.0 0.00 0.00 0.00 85 1024.0
20240612101522 49 93 0.0 1.0 0.00 0.00 0.00 84 1024.1
20240612101006 49 93 0.0 1.0 0.00 0.00 0.00 85 1024.0
20240612100507 49 93 0.0 1.0 0.00 0.00 0.00 84 1024.1
20240612100013 49 68 0.0 1.0 0.00 0.00 0.00 84 1024.1
20240612095508 49 51 0.0 1.0 0.00 0.00 0.00 83 1024.1
20240612095006 49 51 0.0 2.0 0.00 0.00 0.00 82 1024.2
20240612094513 49 68 0.0 2.0 0.00 0.00 0.00 83 1024.2
20240612094006 49 221 0.0 2.0 0.00 0.00 0.00 83 1024.1
20240612093506 49 51 0.0 2.0 0.00 0.00 0.00 83 1024.1
20240612093015 49 9 0.0 2.0 0.00 0.00 0.00 83 1024.1
20240612092507 49 68 0.0 1.0 0.00 0.00 0.00 83 1024.0
20240612092006 49 34 0.0 2.0 0.00 0.00 0.00 84 1024.0
20240612091514 49 292 0.0 2.0 0.00 0.00 0.00 84 1024.1
20240612091007 49 51 0.0 2.0 0.00 0.00 0.00 84 1024.1
20240612090507 49 93 0.0 2.0 0.00 0.00 0.00 84 1024.1
20240612090014 49 68 0.0 2.0 0.00 0.00 0.00 84 1024.1
20240612085507 49 34 0.0 2.0 0.00 0.00 0.00 84 1024.1
20240612085006 49 51 0.0 2.0 0.00 0.00 0.00 84 1024.1
20240612084511 49 51 0.0 1.0 0.00 0.00 0.00 86 1024.2
20240612084008 49 51 0.0 1.0 0.00 0.00 0.00 84 1024.1
20240612083508 49 34 0.0 1.0 0.00 0.00 0.00 83 1024.1
20240612083012 49 51 0.0 1.0 0.00 0.00 0.00 84 1024.1
20240612082506 49 309 0.0 2.0 0.00 0.00 0.00 84 1024.1
20240612082006 49 9 0.0 2.0 0.00 0.00 0.00 84 1024.1
20240612081514 49 34 0.0 2.0 0.00 0.00 0.00 84 1024.1
20240612081006 49 51 0.0 1.0 0.00 0.00 0.00 84 1024.1
20240612080507 49 9 0.0 1.0 0.00 0.00 0.00 85 1024.1
20240612080014 49 51 0.0 2.0 0.00 0.00 0.00 85 1024.1
20240612075509 49 68 0.0 2.0 0.00 0.00 0.00 84 1024.1
20240612075008 49 59 0.0 2.0 0.00 0.00 0.00 84 1024.0
20240612074515 49 68 0.0 1.0 0.00 0.00 0.00 85 1024.0
20240612074006 49 34 0.0 1.0 0.00 0.00 0.00 86 1024.0
20240612073507 49 34 0.0 1.0 0.00 0.00 0.00 85 1024.0
20240612073012 49 34 0.0 1.0 0.00 0.00 0.00 85 1024.1
20240612072507 49 9 0.0 1.0 0.00 0.00 0.00 85 1024.0
20240612072006 49 9 0.0 1.0 0.00 0.00 0.00 84 1024.0
20240612071510 49 51 0.0 1.0 0.00 0.00 0.00 83 1024.0
20240612071008 49 9 0.0 1.0 0.00 0.00 0.00 83 1024.0
20240612070506 49 9 0.0 1.0 0.00 0.00 0.00 83 1024.0
20240612070017 49 51 0.0 1.0 0.00 0.00 0.00 83 1024.0
20240612065506 49 51 0.0 1.0 0.00 0.00 0.00 83 1023.9
20240612065006 50 309 0.0 1.0 0.00 0.00 0.00 83 1023.9
20240612064514 50 9 0.0 1.0 0.00 0.00 0.00 83 1023.8
20240612064007 50 34 0.0 1.0 0.00 0.00 0.00 83 1023.9
20240612063507 50 9 0.0 1.0 0.00 0.00 0.00 82 1023.9
20240612063013 50 51 0.0 1.0 0.00 0.00 0.00 82 1023.9
20240612062507 50 93 0.0 1.0 0.00 0.00 0.00 81 1023.9
20240612062013 50 34 0.0 1.0 0.00 0.00 0.00 81 1023.9
20240612061519 50 9 0.0 1.0 0.00 0.00 0.00 81 1023.9
20240612061011 50 76 0.0 1.0 0.00 0.00 0.00 79 1023.9
20240612060507 50 51 0.0 1.0 0.00 0.00 0.00 79 1023.8
20240612060013 50 51 0.0 1.0 0.00 0.00 0.00 78 1023.8
20240612055506 51 9 0.0 1.0 0.00 0.00 0.00 78 1023.8
20240612055006 51 9 0.0 1.0 0.00 0.00 0.00 78 1023.7
20240612054514 51 51 0.0 1.0 0.00 0.00 0.00 78 1023.6
20240612054007 51 265 0.0 1.0 0.00 0.00 0.00 78 1023.6
20240612053506 51 51 0.0 1.0 0.00 0.00 0.00 77 1023.5
20240612053018 51 51 0.0 2.0 0.00 0.00 0.00 77 1023.6
20240612052506 51 51 0.0 2.0 0.00 0.00 0.00 77 1023.6
20240612052006 51 93 0.0 1.0 0.00 0.00 0.00 77 1023.5
20240612051513 51 265 0.0 1.0 0.00 0.00 0.00 76 1023.5
20240612051006 51 51 0.0 2.0 0.00 0.00 0.00 76 1023.5
20240612050506 51 9 0.0 2.0 0.00 0.00 0.00 76 1023.5
20240612050016 51 265 0.0 1.0 0.00 0.00 0.00 76 1023.5
20240612045507 52 76 0.0 1.0 0.00 0.00 0.00 75 1023.5
20240612045007 52 93 0.0 1.0 0.00 0.00 0.00 76 1023.4
20240612044514 52 9 0.0 3.0 0.00 0.00 0.00 75 1023.4
20240612044008 52 9 0.0 3.0 0.00 0.00 0.00 74 1023.5
20240612043509 52 59 0.0 2.0 0.00 0.00 0.00 75 1023.5
20240612043013 52 9 1.0 3.0 0.00 0.00 0.00 74 1023.3
20240612042506 52 51 1.0 3.0 0.00 0.00 0.00 74 1023.2
20240612042008 52 44 0.0 2.0 0.00 0.00 0.00 75 1023.2
20240612041513 52 38 1.0 2.0 0.00 0.00 0.00 74 1023.1
20240612041006 52 68 0.0 2.0 0.00 0.00 0.00 74 1023.1
20240612040506 52 65 0.0 5.0 0.00 0.00 0.00 74 1023.1
20240612040015 52 93 0.0 5.0 0.00 0.00 0.00 74 1023.1
20240612035509 52 28 2.0 4.0 0.00 0.00 0.00 73 1023.1
20240612035005 52 38 1.0 8.0 0.00 0.00 0.00 73 1023.0
20240612034514 52 41 2.0 8.0 0.00 0.00 0.00 73 1023.1
20240612034008 52 340 1.0 5.0 0.00 0.00 0.00 73 1023.1
20240612033506 52 9 1.0 5.0 0.00 0.00 0.00 73 1023.1
20240612033018 52 9 2.0 5.0 0.00 0.00 0.00 72 1023.0
20240612032508 52 46 1.0 8.0 0.00 0.00 0.00 73 1023.0
20240612032008 52 50 2.0 8.0 0.00 0.00 0.00 73 1023.0
20240612031520 53 51 1.0 4.0 0.00 0.00 0.00 73 1023.0
20240612031008 53 239 1.0 4.0 0.00 0.00 0.00 73 1022.9
20240612030510 53 41 1.0 9.0 0.00 0.00 0.00 72 1022.9
20240612030015 53 303 1.0 9.0 0.00 0.00 0.00 72 1022.8
20240612025507 53 51 2.0 9.0 0.00 0.00 0.00 72 1022.8
20240612025009 53 103 1.0 10.0 0.00 0.00 0.00 71 1022.8
20240612024513 53 342 3.0 12.0 0.00 0.00 0.00 71 1022.8
20240612024006 53 232 3.0 12.0 0.00 0.00 0.00 71 1022.7
20240612023507 54 80 1.0 5.0 0.00 0.00 0.00 70 1022.5
20240612023013 54 43 2.0 6.0 0.00 0.00 0.00 70 1022.5
20240612022506 54 47 2.0 6.0 0.00 0.00 0.00 69 1022.5
20240612022007 54 93 2.0 10.0 0.00 0.00 0.00 69 1022.4
20240612021521 55 282 3.0 10.0 0.00 0.00 0.00 69 1022.4
20240612021006 55 329 1.0 6.0 0.00 0.00 0.00 71 1022.4
20240612020507 55 9 1.0 4.0 0.00 0.00 0.00 71 1022.4
20240612020012 55 51 0.0 10.0 0.00 0.00 0.00 71 1022.3
20240612015507 55 55 2.0 10.0 0.00 0.00 0.00 71 1022.2
20240612015006 55 71 1.0 6.0 0.00 0.00 0.00 72 1022.1
20240612014511 56 325 0.0 7.0 0.00 0.00 0.00 73 1022.1
20240612014006 56 61 1.0 8.0 0.00 0.00 0.00 72 1022.0
20240612013506 56 54 2.0 8.0 0.00 0.00 0.00 71 1022.0
20240612013022 56 28 1.0 8.0 0.00 0.00 0.00 72 1022.0
20240612012507 56 313 1.0 7.0 0.00 0.00 0.00 72 1021.9
20240612012009 56 319 1.0 7.0 0.00 0.00 0.00 71 1021.9
20240612011515 56 65 3.0 7.0 0.00 0.00 0.00 71 1021.8
20240612011007 56 265 2.0 9.0 0.00 0.00 0.00 71 1021.8
20240612010509 56 323 4.0 9.0 0.00 0.00 0.00 72 1021.8
20240612010015 56 48 2.0 8.0 0.00 0.00 0.00 70 1021.7
20240612005508 57 265 2.0 10.0 0.00 0.00 0.00 71 1021.6
20240612005008 57 44 2.0 10.0 0.00 0.00 0.00 70 1021.5
20240612004514 57 22 2.0 10.0 0.00 0.00 0.00 71 1021.5
20240612004006 57 55 1.0 8.0 0.00 0.00 0.00 71 1021.5
20240612003505 57 334 1.0 8.0 0.00 0.00 0.00 71 1021.4
20240612003012 57 298 1.0 10.0 0.00 0.00 0.00 72 1021.4
20240612002506 57 57 3.0 10.0 0.00 0.00 0.00 71 1021.3
20240612002007 57 338 2.0 8.0 0.00 0.00 0.00 71 1021.4
20240612001517 57 44 2.0 9.0 0.00 0.00 0.00 72 1021.4
20240612001008 57 93 2.0 9.0 0.00 0.00 0.00 72 1021.3
20240612000506 57 25 2.0 12.0 0.00 0.00 0.00 73 1021.3
20240612000013 57 64 4.0 12.0 0.00 0.00 0.00 72 1021.4
20240611235506 57 51 3.0 12.0 0.00 0.00 0.00 71 1021.3
20240611235004 58 65 4.0 12.0 0.00 0.00 0.00 70 1021.4
20240611234513 58 50 4.0 10.0 0.00 0.00 0.00 69 1021.3
20240611234006 58 25 2.0 10.0 0.00 0.00 0.00 69 1021.3
20240611233508 59 319 2.0 10.0 0.00 0.00 0.00 69 1021.3
20240611233013 59 270 2.0 11.0 0.00 0.00 0.00 69 1021.2
20240611232508 59 48 2.0 11.0 0.00 0.00 0.00 68 1021.0
20240611232005 59 325 1.0 12.0 0.00 0.00 0.00 68 1021.1
20240611231512 60 9 1.0 12.0 0.00 0.00 0.00 68 1021.0
20240611231007 60 55 2.0 6.0 0.00 0.00 0.00 67 1020.9
20240611230506 60 42 1.0 6.0 0.00 0.00 0.00 67 1020.8
20240611230023 61 51 1.0 6.0 0.00 0.00 0.00 66 1020.8
20240611225506 62 325 1.0 6.0 0.00 0.00 0.00 65 1020.8
20240611225006 62 88 1.0 6.0 0.00 0.00 0.00 64 1020.8
20240611224531 63 22 1.0 6.0 0.00 0.00 0.00 63 1020.6
20240611224006 64 156 1.0 6.0 0.00 0.00 0.00 63 1020.5
20240611223506 64 80 2.0 6.0 0.00 0.00 0.00 62 1020.4
20240611223014 64 239 1.0 5.0 0.00 0.00 0.00 63 1020.4
20240611222508 64 334 1.0 9.0 0.00 0.00 0.00 61 1020.1
20240611222006 65 44 1.0 9.0 0.00 0.00 0.00 60 1020.1
20240611221516 65 84 4.0 9.0 0.00 0.00 0.00 59 1020.0
20240611221005 65 61 2.0 9.0 0.00 0.00 0.00 57 1019.9
20240611220511 66 34 2.0 9.0 0.00 0.00 0.00 60 1019.9
20240611220015 66 323 2.0 9.0 0.00 0.00 0.00 58 1019.8
20240611215506 67 107 3.0 9.0 0.00 0.00 0.00 57 1019.8
20240611215009 66 127 2.0 9.0 0.00 0.00 0.00 55 1019.5
20240611214530 65 137 1.0 16.0 0.00 0.00 0.00 60 1019.4
20240611214009 64 80 4.0 16.0 0.00 0.00 0.00 55 1019.5
20240611213507 64 142 5.0 16.0 0.00 0.00 0.00 56 1019.4
20240611213012 64 150 4.0 16.0 0.00 0.00 0.00 57 1019.5
20240611212505 64 154 4.0 12.0 0.00 0.00 0.00 59 1019.5
20240611212011 64 205 4.0 14.0 0.00 0.00 0.00 61 1019.4
20240611211515 63 194 3.0 14.0 0.00 0.00 0.00 62 1019.3
20240611211007 63 144 5.0 13.0 0.00 0.00 0.00 64 1019.3
20240611210508 63 178 3.0 11.0 0.00 0.00 0.00 66 1019.2
20240611210021 62 142 6.0 11.0 0.00 0.00 0.00 64 1019.2
20240611205506 62 160 4.0 10.0 0.00 0.00 0.00 65 1019.2
20240611205006 62 193 4.0 10.0 0.00 0.00 0.00 65 1019.2
20240611204522 63 134 3.0 12.0 0.00 0.00 0.00 70 1019.1
20240611204006 62 117 2.0 12.0 0.00 0.00 0.00 71 1019.1
20240611203508 62 136 2.0 10.0 0.00 0.00 0.00 70 1019.0
20240611203025 62 205 4.0 11.0 0.00 0.00 0.00 69 1019.1
20240611202507 62 144 4.0 11.0 0.00 0.00 0.00 72 1019.0
20240611202009 61 88 1.0 15.0 0.00 0.00 0.00 71 1018.9
20240611201515 61 164 2.0 15.0 0.00 0.00 0.00 71 1018.9
20240611201005 61 148 6.0 15.0 0.00 0.00 0.00 73 1018.9
20240611200510 61 131 2.0 8.0 0.00 0.00 0.00 76 1018.8
20240611200019 61 198 2.0 9.0 0.00 0.00 0.00 77 1018.8
20240611195506 61 196 1.0 9.0 0.00 0.00 0.00 77 1018.8
20240611195007 61 165 1.0 11.0 0.00 0.00 0.00 76 1018.7
20240611194513 61 135 3.0 11.0 0.00 0.00 0.00 76 1018.8
20240611194007 61 158 2.0 10.0 0.00 0.00 0.00 77 1018.7
20240611193508 61 218 4.0 10.0 0.00 0.00 0.00 75 1018.6
20240611193023 61 189 4.0 10.0 0.00 0.00 0.00 76 1018.6
20240611192510 61 169 3.0 10.0 0.00 0.00 0.00 77 1018.4
20240611192006 60 173 4.0 10.0 0.00 0.00 0.00 76 1018.4
20240611191510 59 216 2.0 9.0 0.00 0.00 0.00 79 1018.4
20240611191006 59 165 2.0 6.0 0.00 0.00 0.00 79 1018.4
20240611190506 59 120 2.0 8.0 0.00 0.00 0.00 78 1018.4
20240611190013 58 142 2.0 8.0 0.00 0.00 0.00 78 1018.5
20240611185507 58 205 3.0 8.0 0.00 0.00 0.00 77 1018.5
20240611185006 58 162 3.0 9.0 0.00 0.00 0.00 78 1018.5
20240611184514 58 194 4.0 9.0 0.00 0.00 0.00 78 1018.4
20240611184007 58 178 3.0 8.0 0.00 0.00 0.00 78 1018.4
20240611183507 57 140 2.0 7.0 0.00 0.00 0.00 79 1018.3
20240611183018 57 117 2.0 9.0 0.00 0.00 0.00 79 1018.3
20240611182509 56 121 1.0 10.0 0.00 0.00 0.00 79 1018.3
20240611182006 56 169 4.0 10.0 0.00 0.00 0.00 77 1018.3
20240611181516 56 158 2.0 10.0 0.00 0.00 0.00 78 1018.3
20240611181008 56 203 2.0 10.0 0.00 0.00 0.00 78 1018.3
20240611180506 56 105 1.0 10.0 0.00 0.00 0.00 79 1018.3
20240611180016 56 72 2.0 10.0 0.00 0.00 0.00 77 1018.3
20240611175508 56 144 2.0 10.0 0.00 0.00 0.00 78 1018.2
20240611175010 56 131 3.0 10.0 0.00 0.00 0.00 76 1018.3
20240611174521 56 169 3.0 9.0 0.00 0.00 0.00 78 1018.2
20240611174459 56 156 3.0 9.0 0.00 0.00 0.00 75 1018.1
20240611173015 56 129 2.0 10.0 0.00 0.00 0.00 75 1018.2
20240611162508 56 141 6.0 13.0 0.00 0.00 0.00 69 1017.3
20240611162007 56 162 4.0 9.0 0.00 0.00 0.00 70 1017.3
20240611161518 56 137 2.0 7.0 0.00 0.00 0.00 79 1017.2
20240611161008 56 208 2.0 7.0 0.00 0.00 0.00 82 1017.2
20240611160511 56 115 1.0 6.0 0.00 0.00 0.00 82 1017.2
20240611160013 56 103 1.0 6.0 0.00 0.00 0.00 81 1017.2
20240611155505 56 132 2.0 6.0 0.00 0.00 0.00 77 1017.0
20240611155012 56 178 0.0 7.0 0.00 0.00 0.00 86 1016.8
20240611154512 56 169 2.0 7.0 0.00 0.00 0.00 82 1016.9
20240611154006 56 137 3.0 0.0 0.00 0.00 0.00 89 1016.8
20240611153559 55 120 0.0 2.0 0.00 0.00 0.00 91 1015.7
20240611153551 55 93 0.0 2.0 0.00 0.00 0.00 91 1015.7
20240611153543 55 102 1.0 0.0 0.00 0.00 0.00 91 1015.7